Location: Caualo
(45.5667°N, 10.8667°E)
Time: 02:43:28
(UTC+00:00)

Cosmos 1869 - Pass Details

Date: 07 June 2020
Orbit: 519 x 563 km, 82.5° (Epoch: 05 July)

Event Time Altitude Azimuth Distance (km) Brightness Sun altitude
Rises 01:24:57 0° 348° (NNW) 2,660 7.6 -15.6°
Reaches altitude 10° 01:27:06 10° 346° (NNW) 1,765 6.5 -15.4°
Maximum altitude 01:30:56 66° 264° (W) 570 3.2 -15.0°
Enters shadow 01:33:02 25° 188° (S) 1,077 4.3 -14.8°
